Meteo orario Abadszalok

Oggi, 19 Giugno, Sabato

Tempo Temperatura Precipitazioni Vento Pressione Umidità
00:00 +21°C° 0 mm 2 m/s 754 mm Hg 72%
01:00 +20°C° 0 mm 3 m/s 754 mm Hg 76%
02:00 +20°C° 0 mm 3 m/s 754 mm Hg 78%
03:00 +19°C° 0 mm 3 m/s 753 mm Hg 80%
04:00 +19°C° 0 mm 3 m/s 753 mm Hg 83%
05:00 +20°C° 0 mm 3 m/s 754 mm Hg 77%
06:00 +22°C° 0 mm 4 m/s 754 mm Hg 72%
07:00 +25°C° 0 mm 4 m/s 754 mm Hg 66%
08:00 +26°C° 0 mm 4 m/s 754 mm Hg 61%
09:00 +28°C° 0 mm 3 m/s 754 mm Hg 56%
10:00 +29°C° 0 mm 3 m/s 754 mm Hg 51%
11:00 +30°C° 0 mm 3 m/s 753 mm Hg 49%
12:00 +30°C° 0 mm 3 m/s 753 mm Hg 47%
13:00 +31°C° 0 mm 3 m/s 753 mm Hg 44%
14:00 +31°C° 0 mm 2 m/s 752 mm Hg 44%
15:00 +31°C° 0 mm 2 m/s 752 mm Hg 44%
16:00 +31°C° 0 mm 2 m/s 752 mm Hg 44%
17:00 +29°C° 0 mm 2 m/s 752 mm Hg 52%
18:00 +28°C° 0 mm 3 m/s 752 mm Hg 59%
19:00 +26°C° 0 mm 3 m/s 752 mm Hg 67%
20:00 +24°C° 0.5 mm 3 m/s 752 mm Hg 73%
21:00 +21°C° 0.5 mm 2 m/s 752 mm Hg 80%
22:00 +19°C° 0.5 mm 2 m/s 752 mm Hg 86%
23:00 +19°C° 0.4 mm 2 m/s 752 mm Hg 87%

Domani, 20 Giugno, Domenica

Tempo Temperatura Precipitazioni Vento Pressione Umidità
00:00 +18°C° 0.4 mm 2 m/s 752 mm Hg 88%
01:00 +19°C° 0.4 mm 1 m/s 753 mm Hg 89%
02:00 +18°C° 0 mm 2 m/s 752 mm Hg 90%
03:00 +18°C° 0 mm 2 m/s 752 mm Hg 90%
04:00 +17°C° 0 mm 2 m/s 752 mm Hg 90%
05:00 +19°C° 0 mm 2 m/s 752 mm Hg 85%
06:00 +20°C° 0 mm 2 m/s 752 mm Hg 81%
07:00 +23°C° 0 mm 1 m/s 752 mm Hg 76%
08:00 +24°C° 0 mm 1 m/s 752 mm Hg 70%
09:00 +26°C° 0 mm 1 m/s 752 mm Hg 64%
10:00 +28°C° 0 mm 1 m/s 752 mm Hg 58%
11:00 +29°C° 0 mm 2 m/s 752 mm Hg 55%
12:00 +29°C° 0 mm 2 m/s 751 mm Hg 52%
13:00 +30°C° 0 mm 2 m/s 751 mm Hg 48%
14:00 +31°C° 0 mm 2 m/s 751 mm Hg 48%
15:00 +31°C° 0 mm 2 m/s 750 mm Hg 47%
16:00 +31°C° 0 mm 2 m/s 750 mm Hg 47%
17:00 +29°C° 0 mm 1 m/s 750 mm Hg 53%
18:00 +28°C° 0 mm 1 m/s 750 mm Hg 58%
19:00 +27°C° 0 mm 1 m/s 749 mm Hg 64%
20:00 +26°C° 0.1 mm 1 m/s 749 mm Hg 67%
21:00 +24°C° 0.1 mm 2 m/s 749 mm Hg 69%
22:00 +23°C° 0.1 mm 2 m/s 750 mm Hg 72%
23:00 +23°C° 0 mm 1 m/s 749 mm Hg 74%

Dopodomani, 21 Giugno, Lunedi

Tempo Temperatura Precipitazioni Vento Pressione Umidità
00:00 +22°C° 0 mm 1 m/s 749 mm Hg 77%
01:00 +21°C° 0 mm 1 m/s 749 mm Hg 79%
02:00 +21°C° 0 mm 1 m/s 749 mm Hg 80%
03:00 +21°C° 0 mm 1 m/s 749 mm Hg 81%
04:00 +20°C° 0 mm 2 m/s 749 mm Hg 83%
05:00 +21°C° 0 mm 2 m/s 749 mm Hg 78%
06:00 +24°C° 0 mm 2 m/s 749 mm Hg 73%
07:00 +25°C° 0 mm 2 m/s 749 mm Hg 68%
08:00 +27°C° 0 mm 2 m/s 749 mm Hg 63%
09:00 +29°C° 0 mm 2 m/s 749 mm Hg 57%
10:00 +30°C° 0 mm 2 m/s 749 mm Hg 52%
11:00 +31°C° 0 mm 2 m/s 748 mm Hg 49%
12:00 +32°C° 0 mm 2 m/s 748 mm Hg 47%
13:00 +34°C° 0 mm 2 m/s 748 mm Hg 44%
14:00 +32°C° 0 mm 2 m/s 748 mm Hg 46%
15:00 +32°C° 0 mm 2 m/s 747 mm Hg 49%
16:00 +32°C° 0 mm 2 m/s 747 mm Hg 51%
17:00 +30°C° 0.1 mm 2 m/s 747 mm Hg 57%
18:00 +29°C° 0.1 mm 3 m/s 747 mm Hg 63%
19:00 +27°C° 0.1 mm 3 m/s 747 mm Hg 69%
20:00 +26°C° 0.8 mm 3 m/s 747 mm Hg 74%
21:00 +25°C° 0.8 mm 3 m/s 747 mm Hg 79%
22:00 +22°C° 0.8 mm 4 m/s 747 mm Hg 84%
23:00 +22°C° 1.8 mm 4 m/s 747 mm Hg 87%

22 Giugno, Martedi

Tempo Temperatura Precipitazioni Vento Pressione Umidità
00:00 +22°C° 1.8 mm 4 m/s 747 mm Hg 90%
01:00 +21°C° 1.8 mm 4 m/s 747 mm Hg 92%
02:00 +21°C° 0.5 mm 3 m/s 747 mm Hg 93%
03:00 +21°C° 0.5 mm 3 m/s 747 mm Hg 94%
04:00 +20°C° 0.5 mm 2 m/s 748 mm Hg 94%
05:00 +21°C° 0.1 mm 3 m/s 748 mm Hg 90%
06:00 +22°C° 0.1 mm 3 m/s 748 mm Hg 86%
07:00 +24°C° 0.1 mm 3 m/s 749 mm Hg 82%
08:00 +26°C° 0 mm 3 m/s 749 mm Hg 76%
09:00 +28°C° 0 mm 3 m/s 750 mm Hg 70%
10:00 +29°C° 0 mm 2 m/s 750 mm Hg 64%
11:00 +30°C° 0 mm 2 m/s 750 mm Hg 61%
12:00 +31°C° 0 mm 2 m/s 750 mm Hg 58%
13:00 +32°C° 0 mm 2 m/s 750 mm Hg 55%
14:00 +32°C° 0 mm 2 m/s 750 mm Hg 54%
15:00 +32°C° 0 mm 2 m/s 750 mm Hg 54%
16:00 +32°C° 0 mm 1 m/s 750 mm Hg 53%
17:00 +31°C° 0 mm 1 m/s 750 mm Hg 58%
18:00 +30°C° 0 mm 1 m/s 751 mm Hg 64%
19:00 +29°C° 0 mm 2 m/s 751 mm Hg 69%
20:00 +28°C° 0.2 mm 2 m/s 751 mm Hg 71%
21:00 +27°C° 0.2 mm 2 m/s 751 mm Hg 74%
22:00 +26°C° 0.2 mm 2 m/s 751 mm Hg 77%
23:00 +25°C° 0 mm 2 m/s 751 mm Hg 79%

23 Giugno, Mercoledi

Tempo Temperatura Precipitazioni Vento Pressione Umidità
00:00 +25°C° 0 mm 2 m/s 751 mm Hg 81%
01:00 +24°C° 0 mm 2 m/s 751 mm Hg 83%
02:00 +24°C° 0 mm 2 m/s 752 mm Hg 85%
03:00 +23°C° 0 mm 1 m/s 752 mm Hg 86%
04:00 +23°C° 0 mm 1 m/s 752 mm Hg 88%
05:00 +25°C° 0 mm 2 m/s 752 mm Hg 84%
06:00 +26°C° 0 mm 2 m/s 752 mm Hg 79%
07:00 +27°C° 0 mm 2 m/s 752 mm Hg 74%
08:00 +29°C° 0 mm 2 m/s 752 mm Hg 68%
09:00 +31°C° 0 mm 2 m/s 753 mm Hg 62%
10:00 +32°C° 0 mm 2 m/s 753 mm Hg 56%
11:00 +34°C° 0 mm 2 m/s 752 mm Hg 51%
12:00 +35°C° 0 mm 2 m/s 752 mm Hg 47%
13:00 +36°C° 0 mm 2 m/s 752 mm Hg 42%
14:00 +37°C° 0 mm 2 m/s 752 mm Hg 40%
15:00 +37°C° 0 mm 2 m/s 752 mm Hg 38%
16:00 +37°C° 0 mm 2 m/s 752 mm Hg 37%
17:00 +35°C° 0 mm 2 m/s 752 mm Hg 44%
18:00 +32°C° 0 mm 2 m/s 752 mm Hg 52%
19:00 +31°C° 0 mm 2 m/s 751 mm Hg 60%
20:00 +29°C° 0 mm 2 m/s 752 mm Hg 63%
21:00 +28°C° 0 mm 2 m/s 752 mm Hg 66%
22:00 +27°C° 0 mm 3 m/s 752 mm Hg 70%
23:00 +27°C° 0 mm 2 m/s 752 mm Hg 71%

24 Giugno, Giovedi

Tempo Temperatura Precipitazioni Vento Pressione Umidità
00:00 +26°C° 0 mm 2 m/s 752 mm Hg 72%
01:00 +25°C° 0 mm 2 m/s 752 mm Hg 73%
02:00 +25°C° 0 mm 2 m/s 752 mm Hg 73%
03:00 +25°C° 0 mm 2 m/s 752 mm Hg 74%
04:00 +24°C° 0 mm 2 m/s 752 mm Hg 74%
05:00 +26°C° 0.1 mm 2 m/s 752 mm Hg 71%
06:00 +27°C° 0.1 mm 2 m/s 753 mm Hg 68%
07:00 +28°C° 0.1 mm 2 m/s 753 mm Hg 66%
08:00 +30°C° 0 mm 3 m/s 753 mm Hg 58%
09:00 +33°C° 0 mm 3 m/s 753 mm Hg 51%
10:00 +35°C° 0 mm 3 m/s 753 mm Hg 44%
11:00 +36°C° 0 mm 4 m/s 753 mm Hg 41%
12:00 +37°C° 0 mm 4 m/s 753 mm Hg 38%
13:00 +39°C° 0 mm 5 m/s 753 mm Hg 36%
14:00 +37°C° 0 mm 5 m/s 752 mm Hg 37%
15:00 +37°C° 0 mm 5 m/s 752 mm Hg 38%
16:00 +36°C° 0 mm 5 m/s 752 mm Hg 39%
17:00 +34°C° 0 mm 4 m/s 752 mm Hg 46%
18:00 +32°C° 0 mm 4 m/s 752 mm Hg 53%
19:00 +29°C° 0 mm 3 m/s 752 mm Hg 60%
20:00 +28°C° 0 mm 2 m/s 752 mm Hg 63%
21:00 +27°C° 0 mm 2 m/s 752 mm Hg 66%
22:00 +26°C° 0 mm 1 m/s 752 mm Hg 69%
23:00 +26°C° 0 mm 1 m/s 752 mm Hg 70%
Mostrare altro

Abbiamo bisogno del tuo consenso

Meteoprog e i nostri fornitori di servizi possono memorizzare e accedere a dati personali come cookie, identificatori di dispositivi o altre tecnologie simili sul tuo dispositivo e possono elaborare tali dati per personalizzare i contenuti e gli annunci, nonché fornire funzionalità dei social media e analizzarne il traffico.

  • Archiviare e/o accedere alle informazioni sul tuo dispositivo

    Cookie, identificatori di dispositivi o altre informazioni possono essere memorizzati o resi accessibili sul tuo dispositivo per le finalità sopra indicate.

  • Annunci e contenuti personalizzati, misurazione di annunci e contenuti, approfondimenti sul pubblico e sviluppo di prodotti

    Gli annunci e i contenuti possono essere personalizzati in base a un profilo. È possibile aggiungere più dati per personalizzare meglio annunci e contenuti. È possibile misurare il rendimento degli annunci e dei contenuti. È possibile ricavare informazioni sul pubblico che ha visto gli annunci e i contenuti. Tali dati possono essere utilizzati per sviluppare o migliorare l'esperienza, i sistemi e il software dell'utente.

Cliccando su “Accetto”, acconsenti all'uso di cookie, identificatori di dispositivo, web beacon o altre tecnologie simili. Puoi modificare le impostazioni nel browser del tuo dispositivo.

Per determinati scopi, è possibile fare affidamento su interessi legali, piuttosto che sul consenso. Puoi approfondire questo argomento consultando la nostra Informativa sulla privacy e sui cookie.